BLOCK DM-SL R/B, 28627

Orbit data source: Space-Track

BLOCK DM-SL R/B, 28627 is space debris in HEO originally from a launch on Tue, 01 Mar 2005 UTC launched from the Sea Launch (SEAL). Debris objects in space refer to the collection of defunct objects orbiting the Earth. Examples of debris include non-operational satellites, rocket bodies, and fragments generated from explosions, collisions, or faulty payload assembly.

Loading next visibility...
BLOCK DM-SL R/B details
Identifier
28627, 2005-008B
Orbit
HEO
Last TLE update1 day ago
Origin
Flag of USSeaLaunch (US / SEAL)
ManufacturerRKKE
MissionSpacecraft
Bus & MotorBLOK DM2, 11D58M
Mass~3,070 kg wet, 3,070 kg dry
Launch date (UTC)
2005-03-01 (20 years ago)
Launch vehicleUnknown
Launch site
Sea Launch (SEAL)
Object type
Payload
Rocket body
Debris
Shape & HBRCyl, 6.3 m
Radar Cross Section23.684 m², Large (>1 m²)

Expand to show TLE details & history

TLE from 1 day ago
0 BLOCK DM-SL R/B
1 28627U 05008B   25046.32300649 -.00000137  00000-0  00000-0 0  9994
2 28627   0.1823 327.4030 6552884 161.5516 310.2586  2.13876005156024
Epoch: 2025-02-15T07:45Z
Definitive object data (Epoch: 2025-02-15T07:45:07.76Z)
Latitude0.06248°
Longitude98.14546°
Altitude18,306.071 km
Speed4.078 km/s
True Right ascension23h 59m 59s
True Declination0° 03' 45"
Sunlit
Object was in daylight at TLE epoch
Visualization TLE readout
Latitude-0.08208°
Longitude36.92514°
Altitude34,450.491 km
Speed1.965 km/s
Apparent Right ascension20h 22m 20s
Apparent Declination-5° 55' 34"
Sunlit
Object is in daylight
Visualization observer readout
Local Sidereal Time14:58:02
Azimuth100.277° ESE
Elevation2.985°
Doppler factor1
Orbital elements
Apogee altitude35,749.743 km
Perigee altitude2,394.938 km
Semi-major axis25,450.477 km
Eccentricity0.6552884
Inclination0.1823°
RAAN327.403°
Arg. of periapsis161.5516°
True anomaly231.17443°
Mean anomaly310.2586°
Eccentric anomaly272.75679°
Mean motion0.53456 °/min
BSTARUnknown
Orbital period673.45 mins
Loading maneuver chart data...
Loading historical data...
Loading historical data...
Loading historical data...
Loading historical data...
Loading historical data...
Loading historical data...
Loading historical data...
Other satellites on launch #8 in the year 2005 (2005-03-01 UTC)

BLOCK DM-SL R/B Visibility forecast

Observer location: undefined°, undefined

Span
Click to sort rows by Start time (UTC) header in descending order
Start Az.
Max El. time (UTC)
Max El. Az.
Max El.
End time (UTC)
End Az.
220 mins2025-02-16 13:42:32.887Z106.621° ESE2025-02-16 16:01:32.887Z115.163° SE16.257°2025-02-16 17:22:32.887Z112.669° SE
|